Weather History for KTTD - March, 2014

Change the Weather History Date:

Wednesday, March 5, 2014

  Actual Average Record
Temperature  
Mean Temperature 54 °F 45 °F  
Max Temperature 60 °F 54 °F 66 °F (1986)
Min Temperature 47 °F 37 °F 22 °F (1960)
Degree Days  
Heating Degree Days 11 20  
Month to date heating degree days 81 100  
Cooling Degree Days 0 0  
Month to date cooling degree days 0 0  
Growing Degree Days 4 (Base 50)    
Moisture  
Dew Point 50 °F    
Average Humidity 87    
Maximum Humidity 96    
Minimum Humidity 77    
Precipitation  
Precipitation 0.77 in 0.15 in 1.75 in (1996)
Month to date precipitation 1.44 0.78  
Year to date precipitation 7.50 12.05  
Sea Level Pressure  
Sea Level Pressure 29.69 in    
Wind  
Wind Speed 9 mph (ESE)    
Max Wind Speed 23 mph    
Max Gust Speed 34 mph    
Visibility 8 miles    
Events Rain    
T = Trace of Precipitation, MM = Missing Value Source: NWS Daily Summary

Daily Weather History Graph

Daily Weather History Graph

Search for Another Location

Airport or City:

Trip Planner

Search our weather history database for the weather conditions in past years. The results will help you decide how hot, cold, wet, or windy it might be!

Date:

Astronomy

Mar. 05, 2014 Rise Set
Actual Time 6:40 AM PST 6:02 PM PST
Civil Twilight 6:11 AM PST 6:31 PM PST
Nautical Twilight 5:36 AM PST 7:06 PM PST
Astronomical Twilight 5:02 AM PST 7:40 PM PST
Moon 8:55 AM PST (3/5) 11:32 PM PST (3/5)
Length of Visible Light 12h 20m
Length of Day
11h 21m
Waxing Crescent, 24% of the Moon is Illuminated
Mar 5
Waxing Crescent
Mar 8
First Quarter
Mar 16
Full
Mar 23
Last Quarter
Mar 30
New

Hourly Weather History & Observations

Time (PST) Temp. Dew Point Humidity Pressure Visibility Wind Dir Wind Speed Gust Speed Precip Events Conditions
12:53 AM 50.0 °F 45.0 °F 83% 29.81 in 10.0 mi East 15.0 mph - 0.01 in   Overcast
1:53 AM 50.0 °F 46.0 °F 86% 29.81 in 10.0 mi NNE 3.5 mph - 0.00 in Rain Light Rain
2:53 AM 48.9 °F 46.0 °F 90% 29.78 in 7.0 mi East 13.8 mph - 0.01 in   Overcast
3:53 AM 48.9 °F 46.0 °F 90% 29.77 in 4.0 mi East 9.2 mph - 0.06 in Rain Rain
4:48 AM 48.2 °F 46.4 °F 93% 29.75 in 5.0 mi East 6.9 mph - 0.09 in Rain Light Rain
4:53 AM 48.0 °F 46.0 °F 93% 29.75 in 6.0 mi East 5.8 mph - 0.09 in Rain Light Rain
5:11 AM 48.0 °F 46.0 °F 93% 29.75 in 4.0 mi East 4.6 mph - 0.02 in Rain Light Rain
5:19 AM 48.0 °F 46.0 °F 93% 29.75 in 5.0 mi NE 4.6 mph - 0.03 in Rain Light Rain
5:53 AM 48.0 °F 46.0 °F 93% 29.75 in 4.0 mi ENE 4.6 mph - 0.03 in Rain Light Rain
6:53 AM 48.0 °F 46.0 °F 93% 29.75 in 8.0 mi ENE 4.6 mph - 0.00 in Rain Light Rain
7:44 AM 48.9 °F 46.9 °F 93% 29.76 in 5.0 mi Calm Calm - 0.01 in Rain Light Rain
7:53 AM 48.9 °F 48.0 °F 97% 29.77 in 5.0 mi Calm Calm - 0.01 in   Overcast
8:25 AM 57.0 °F 53.1 °F 87% 29.77 in 10.0 mi SW 10.4 mph - N/A   Overcast
8:53 AM 57.0 °F 53.1 °F 87% 29.77 in 9.0 mi SW 11.5 mph - N/A   Overcast
9:53 AM 57.9 °F 53.1 °F 84% 29.77 in 10.0 mi SSW 9.2 mph 19.6 mph N/A   Overcast
10:53 AM 59.0 °F 54.0 °F 83% 29.76 in 10.0 mi SSW 11.5 mph 19.6 mph 0.00 in Rain Light Rain
11:53 AM 57.9 °F 54.0 °F 87% 29.73 in 10.0 mi Calm Calm - 0.03 in Rain Light Rain
12:25 PM 57.0 °F 54.0 °F 89% 29.72 in 5.0 mi ESE 3.5 mph - 0.03 in Rain Rain
12:53 PM 57.0 °F 54.0 °F 89% 29.69 in 10.0 mi NE 3.5 mph - 0.05 in   Overcast
1:53 PM 55.9 °F 54.0 °F 93% 29.64 in 10.0 mi East 9.2 mph - 0.03 in   Overcast
2:03 PM 55.0 °F 53.1 °F 93% 29.64 in 2.5 mi East 6.9 mph - 0.02 in Rain Light Rain
2:21 PM 53.1 °F 50.0 °F 89% 29.62 in 10.0 mi East 11.5 mph - 0.02 in   Overcast
2:53 PM 52.0 °F 50.0 °F 93% 29.59 in 10.0 mi East 13.8 mph - 0.02 in   Overcast
3:53 PM 51.1 °F 48.9 °F 92% 29.57 in 4.0 mi NE 8.1 mph - 0.11 in Rain Light Rain
4:53 PM 54.0 °F 51.1 °F 90% 29.53 in 3.0 mi East 10.4 mph - 0.07 in Rain Rain
5:53 PM 54.0 °F 51.1 °F 90% 29.49 in 7.0 mi East 6.9 mph - 0.11 in Rain Light Rain
6:53 PM 59.0 °F 54.0 °F 83% 29.52 in 10.0 mi South 8.1 mph - 0.03 in Rain Light Rain
7:53 PM 59.0 °F 53.1 °F 81% 29.56 in 10.0 mi SW 11.5 mph 23.0 mph 0.09 in Rain Light Rain
8:53 PM 57.0 °F 50.0 °F 77% 29.57 in 10.0 mi SW 16.1 mph 28.8 mph 0.00 in Rain Light Rain
9:53 PM 57.0 °F 48.0 °F 72% 29.57 in 10.0 mi SSW 12.7 mph 34.5 mph 0.03 in   Scattered Clouds
10:53 PM 57.0 °F 48.9 °F 74% 29.61 in 10.0 mi SSW 15.0 mph 23.0 mph 0.00 in Rain Light Rain
11:53 PM 55.9 °F 48.0 °F 75% 29.63 in 10.0 mi South 12.7 mph - 0.00 in   Scattered Clouds